• în România
  • Lista ţărilor
  • Pe 7 zile
  • Temperatura apei
  • Hartă satelitară
  • Meteo pe hartă
  • Widget-uri
  • user-avatar
    Intrare

    Meteo pe oră la Pokrovka-Kazinka

    Astăzi, 24 Septembrie, Luni

    Timp Temperatura Precipitaţii Vânt Presiune Umiditate
    00:00 +9°C° 2.6 mm 6 m/s 748 mmHg 86%
    01:00 +9°C° 0.1 mm 5 m/s 748 mmHg 87%
    02:00 +10°C° 0.1 mm 4 m/s 748 mmHg 87%
    03:00 +10°C° 0 mm 4 m/s 748 mmHg 88%
    04:00 +8°C° 0 mm 4 m/s 748 mmHg 90%
    05:00 +8°C° 0 mm 4 m/s 749 mmHg 91%
    06:00 +8°C° 0 mm 4 m/s 749 mmHg 92%
    07:00 +10°C° 0 mm 3 m/s 749 mmHg 88%
    08:00 +11°C° 0 mm 3 m/s 750 mmHg 83%
    09:00 +13°C° 0 mm 2 m/s 750 mmHg 76%
    10:00 +13°C° 0 mm 3 m/s 750 mmHg 69%
    11:00 +14°C° 0 mm 3 m/s 750 mmHg 62%
    12:00 +16°C° 0 mm 3 m/s 750 mmHg 55%
    13:00 +17°C° 0 mm 3 m/s 750 mmHg 52%
    14:00 +17°C° 0 mm 3 m/s 749 mmHg 49%
    15:00 +18°C° 0 mm 3 m/s 749 mmHg 46%
    16:00 +17°C° 0 mm 3 m/s 748 mmHg 50%
    17:00 +16°C° 0 mm 3 m/s 748 mmHg 54%
    18:00 +14°C° 0 mm 3 m/s 748 mmHg 58%
    19:00 +14°C° 0 mm 4 m/s 747 mmHg 56%
    20:00 +13°C° 0 mm 5 m/s 747 mmHg 55%
    21:00 +13°C° 0 mm 5 m/s 747 mmHg 54%
    22:00 +13°C° 0 mm 6 m/s 746 mmHg 52%
    23:00 +13°C° 0 mm 6 m/s 746 mmHg 51%

    Mâine, 25 Septembrie, Marţi

    Timp Temperatura Precipitaţii Vânt Presiune Umiditate
    00:00 +14°C° 0 mm 7 m/s 745 mmHg 49%
    01:00 +12°C° 0.2 mm 7 m/s 744 mmHg 52%
    02:00 +12°C° 0.2 mm 7 m/s 744 mmHg 54%
    03:00 +12°C° 0.2 mm 7 m/s 743 mmHg 56%
    04:00 +12°C° 0.4 mm 7 m/s 743 mmHg 64%
    05:00 +11°C° 0.4 mm 7 m/s 742 mmHg 72%
    06:00 +11°C° 0.4 mm 7 m/s 742 mmHg 80%
    07:00 +11°C° 0.9 mm 6 m/s 742 mmHg 82%
    08:00 +10°C° 0.9 mm 6 m/s 743 mmHg 85%
    09:00 +10°C° 0.9 mm 6 m/s 743 mmHg 87%
    10:00 +10°C° 0.8 mm 6 m/s 743 mmHg 83%
    11:00 +10°C° 0.8 mm 5 m/s 744 mmHg 79%
    12:00 +10°C° 0.8 mm 5 m/s 744 mmHg 75%
    13:00 +10°C° 0 mm 5 m/s 745 mmHg 72%
    14:00 +10°C° 0 mm 5 m/s 745 mmHg 69%
    15:00 +10°C° 0 mm 5 m/s 746 mmHg 66%
    16:00 +10°C° 0 mm 5 m/s 746 mmHg 68%
    17:00 +11°C° 0 mm 4 m/s 747 mmHg 69%
    18:00 +11°C° 0 mm 4 m/s 747 mmHg 71%
    19:00 +10°C° 0 mm 4 m/s 748 mmHg 74%
    20:00 +8°C° 0 mm 4 m/s 748 mmHg 77%
    21:00 +8°C° 0 mm 4 m/s 749 mmHg 80%
    22:00 +7°C° 0 mm 4 m/s 749 mmHg 82%
    23:00 +7°C° 0 mm 4 m/s 749 mmHg 84%

    Poimâine, 26 Septembrie, Miercuri

    Timp Temperatura Precipitaţii Vânt Presiune Umiditate
    00:00 +6°C° 0 mm 4 m/s 750 mmHg 86%
    01:00 +6°C° 0 mm 4 m/s 750 mmHg 87%
    02:00 +5°C° 0 mm 4 m/s 750 mmHg 87%
    03:00 +5°C° 0 mm 4 m/s 751 mmHg 88%
    04:00 +5°C° 0 mm 4 m/s 751 mmHg 89%
    05:00 +4°C° 0 mm 4 m/s 752 mmHg 90%
    06:00 +4°C° 0 mm 3 m/s 752 mmHg 91%
    07:00 +5°C° 0 mm 4 m/s 753 mmHg 86%
    08:00 +6°C° 0 mm 4 m/s 754 mmHg 80%
    09:00 +7°C° 0 mm 4 m/s 754 mmHg 75%
    10:00 +8°C° 0 mm 5 m/s 755 mmHg 70%
    11:00 +9°C° 0 mm 5 m/s 755 mmHg 65%
    12:00 +10°C° 0 mm 5 m/s 755 mmHg 60%
    13:00 +10°C° 0 mm 5 m/s 755 mmHg 58%
    14:00 +10°C° 0 mm 5 m/s 756 mmHg 57%
    15:00 +10°C° 0 mm 5 m/s 756 mmHg 56%
    16:00 +10°C° 0 mm 4 m/s 756 mmHg 59%
    17:00 +9°C° 0 mm 3 m/s 756 mmHg 62%
    18:00 +9°C° 0 mm 2 m/s 757 mmHg 65%
    19:00 +8°C° 0 mm 2 m/s 757 mmHg 66%
    20:00 +7°C° 0 mm 2 m/s 757 mmHg 68%
    21:00 +7°C° 0 mm 2 m/s 757 mmHg 69%
    22:00 +6°C° 0 mm 2 m/s 757 mmHg 69%
    23:00 +5°C° 0 mm 3 m/s 757 mmHg 69%

    27 Septembrie, Joi

    Timp Temperatura Precipitaţii Vânt Presiune Umiditate
    00:00 +4°C° 0 mm 3 m/s 757 mmHg 70%
    01:00 +4°C° 0 mm 3 m/s 757 mmHg 70%
    02:00 +4°C° 0 mm 3 m/s 756 mmHg 71%
    03:00 +4°C° 0 mm 4 m/s 756 mmHg 72%
    04:00 +4°C° 0 mm 4 m/s 756 mmHg 71%
    05:00 +3°C° 0 mm 5 m/s 755 mmHg 70%
    06:00 +3°C° 0 mm 5 m/s 755 mmHg 69%
    07:00 +4°C° 0 mm 6 m/s 754 mmHg 66%
    08:00 +5°C° 0 mm 7 m/s 754 mmHg 62%
    09:00 +6°C° 0 mm 8 m/s 753 mmHg 58%
    10:00 +6°C° 0.2 mm 9 m/s 753 mmHg 58%
    11:00 +6°C° 0.2 mm 9 m/s 752 mmHg 59%
    12:00 +7°C° 0.2 mm 10 m/s 752 mmHg 59%
    13:00 +7°C° 0.4 mm 9 m/s 751 mmHg 62%
    14:00 +7°C° 0.4 mm 9 m/s 751 mmHg 65%
    15:00 +6°C° 0.4 mm 9 m/s 750 mmHg 67%
    16:00 +7°C° 0.2 mm 8 m/s 750 mmHg 70%
    17:00 +7°C° 0.2 mm 8 m/s 750 mmHg 72%
    18:00 +8°C° 0.2 mm 7 m/s 750 mmHg 74%
    19:00 +8°C° 0.1 mm 7 m/s 749 mmHg 76%
    20:00 +8°C° 0.1 mm 7 m/s 749 mmHg 78%
    21:00 +8°C° 0.1 mm 7 m/s 749 mmHg 80%
    22:00 +8°C° 0.4 mm 7 m/s 749 mmHg 81%
    23:00 +8°C° 0.4 mm 7 m/s 748 mmHg 82%

    28 Septembrie, Vineri

    Timp Temperatura Precipitaţii Vânt Presiune Umiditate
    00:00 +8°C° 0.4 mm 7 m/s 748 mmHg 84%
    01:00 +8°C° 0.2 mm 6 m/s 748 mmHg 84%
    02:00 +9°C° 0.2 mm 6 m/s 748 mmHg 85%
    03:00 +9°C° 0.2 mm 6 m/s 748 mmHg 86%
    04:00 +9°C° 0 mm 5 m/s 748 mmHg 87%
    05:00 +9°C° 0 mm 5 m/s 748 mmHg 89%
    06:00 +9°C° 0 mm 5 m/s 748 mmHg 90%
    07:00 +9°C° 0.1 mm 5 m/s 748 mmHg 90%
    08:00 +10°C° 0.1 mm 5 m/s 748 mmHg 89%
    09:00 +10°C° 0.1 mm 5 m/s 748 mmHg 88%
    10:00 +11°C° 0.1 mm 6 m/s 748 mmHg 86%
    11:00 +13°C° 0.1 mm 6 m/s 748 mmHg 83%
    12:00 +14°C° 0.1 mm 7 m/s 747 mmHg 81%
    13:00 +15°C° 0 mm 7 m/s 747 mmHg 77%
    14:00 +15°C° 0 mm 7 m/s 747 mmHg 74%
    15:00 +16°C° 0 mm 8 m/s 747 mmHg 71%
    16:00 +15°C° 0 mm 7 m/s 746 mmHg 73%
    17:00 +15°C° 0 mm 6 m/s 746 mmHg 75%
    18:00 +14°C° 0 mm 6 m/s 746 mmHg 76%
    19:00 +14°C° 0 mm 6 m/s 746 mmHg 78%
    20:00 +13°C° 0 mm 6 m/s 747 mmHg 79%
    21:00 +13°C° 0 mm 6 m/s 747 mmHg 81%
    22:00 +13°C° 0 mm 6 m/s 747 mmHg 82%
    23:00 +12°C° 0 mm 5 m/s 747 mmHg 84%

    29 Septembrie, Sâmbătă

    Timp Temperatura Precipitaţii Vânt Presiune Umiditate
    00:00 +12°C° 0 mm 5 m/s 747 mmHg 85%
    01:00 +12°C° 0 mm 4 m/s 748 mmHg 85%
    02:00 +11°C° 0 mm 3 m/s 748 mmHg 86%
    03:00 +12°C° 0 mm 2 m/s 749 mmHg 86%
    04:00 +10°C° 0 mm 2 m/s 749 mmHg 87%
    05:00 +9°C° 0 mm 2 m/s 750 mmHg 88%
    06:00 +9°C° 0 mm 2 m/s 750 mmHg 89%
    07:00 +9°C° 0 mm 2 m/s 750 mmHg 84%
    08:00 +10°C° 0 mm 2 m/s 751 mmHg 79%
    09:00 +11°C° 0 mm 3 m/s 751 mmHg 74%
    10:00 +11°C° 0 mm 3 m/s 751 mmHg 71%
    11:00 +13°C° 0 mm 2 m/s 751 mmHg 67%
    12:00 +14°C° 0 mm 2 m/s 751 mmHg 63%
    13:00 +14°C° 0 mm 2 m/s 751 mmHg 64%
    14:00 +15°C° 0 mm 2 m/s 751 mmHg 64%
    15:00 +15°C° 0 mm 2 m/s 751 mmHg 65%
    16:00 +15°C° 0 mm 2 m/s 751 mmHg 69%
    17:00 +14°C° 0 mm 1 m/s 750 mmHg 74%
    18:00 +13°C° 0 mm 1 m/s 750 mmHg 78%
    19:00 +13°C° 0 mm 1 m/s 750 mmHg 80%
    20:00 +13°C° 0 mm 2 m/s 750 mmHg 81%
    21:00 +13°C° 0 mm 2 m/s 751 mmHg 83%
    22:00 +12°C° 0.6 mm 2 m/s 750 mmHg 86%
    23:00 +12°C° 0.6 mm 2 m/s 750 mmHg 89%
    Arată mai mult